DL1NER Weather Reports


Display with metric or nautical units.
time (UTC)temp
F
wind
direction
speed
MPH
gust
MPH
rain 1hr
in
rain 24hr
in
rain mn
in
humidity
%
barometer
mb
20260831181011 65 248 4.0 11.0 0.00 0.34 0.34 59 1017.0
20260831180011 66 269 4.0 14.0 0.00 0.34 0.34 58 1016.8
20260831175010 66 207 4.0 10.0 0.00 0.34 0.34 58 1016.7
20260831174011 67 220 6.0 14.0 0.00 0.34 0.34 57 1016.6
20260831173010 68 243 9.0 23.0 0.00 0.34 0.34 57 1016.6
20260831172010 70 259 11.0 30.0 0.00 0.34 0.34 53 1016.3
20260831171010 71 200 7.0 19.0 0.00 0.34 0.34 52 1015.8
20260831170010 71 200 7.0 19.0 0.00 0.34 0.34 52 1015.8
20260831165017 71 230 5.0 14.0 0.00 0.34 0.34 52 1015.7
20260831164009 72 192 6.0 16.0 0.00 0.34 0.34 51 1015.6
20260831163011 72 192 6.0 16.0 0.00 0.34 0.34 51 1015.6
20260831162010 72 215 6.0 15.0 0.00 0.34 0.34 51 1015.7
20260831161017 72 224 7.0 15.0 0.00 0.34 0.34 51 1015.6
20260831160009 74 218 7.0 16.0 0.00 0.34 0.34 52 1015.4
20260831154011 74 5 5.0 20.0 0.00 0.34 0.34 52 1015.4
20260831153009 74 217 5.0 17.0 0.00 0.34 0.34 52 1015.3
20260831152009 74 202 6.0 18.0 0.00 0.34 0.34 50 1015.2
20260831150010 75 247 7.0 18.0 0.00 0.34 0.34 50 1015.2
20260831145009 75 212 7.0 18.0 0.00 0.34 0.34 49 1015.4
20260831143009 76 224 7.0 16.0 0.00 0.34 0.34 51 1015.3
20260831142014 76 224 7.0 16.0 0.00 0.34 0.34 51 1015.3
20260831141014 76 166 8.0 19.0 0.00 0.34 0.34 50 1015.5
20260831140013 76 215 7.0 18.0 0.00 0.34 0.34 48 1015.5
20260831135013 76 232 7.0 16.0 0.00 0.34 0.34 49 1015.4
20260831134013 76 247 8.0 18.0 0.00 0.34 0.34 50 1015.4
20260831133013 76 218 9.0 20.0 0.00 0.34 0.34 48 1015.4
20260831132013 76 203 9.0 23.0 0.00 0.34 0.34 51 1015.6
20260831131013 76 224 10.0 18.0 0.00 0.34 0.34 50 1015.5
20260831130013 76 226 8.0 16.0 0.00 0.34 0.34 53 1015.5
20260831125013 75 218 7.0 22.0 0.00 0.34 0.34 50 1015.6
20260831124013 74 213 7.0 17.0 0.00 0.34 0.34 55 1015.7
20260831123013 74 236 10.0 17.0 0.00 0.34 0.34 52 1015.6
20260831122013 74 200 7.0 17.0 0.00 0.34 0.34 52 1015.6
20260831121013 74 248 6.0 16.0 0.00 0.34 0.34 55 1015.6
20260831120013 73 252 7.0 18.0 0.00 0.34 0.34 53 1015.6
20260831115013 72 233 7.0 18.0 0.00 0.34 0.34 56 1015.7
20260831114013 71 232 5.0 12.0 0.00 0.34 0.34 56 1015.8
20260831113013 72 189 7.0 20.0 0.00 0.34 0.34 53 1015.8
20260831112012 73 194 8.0 18.0 0.00 0.34 0.34 51 1015.8
20260831111012 73 236 7.0 18.0 0.00 0.34 0.34 55 1015.9
20260831110013 73 181 7.0 19.0 0.00 0.34 0.34 54 1015.6
20260831105013 73 248 7.0 23.0 0.00 0.34 0.34 56 1015.8
20260831104013 72 201 8.0 17.0 0.00 0.34 0.34 63 1015.7
20260831103013 72 216 8.0 21.0 0.00 0.34 0.34 64 1015.9
20260831102012 72 297 8.0 18.0 0.00 0.34 0.34 69 1015.8
20260831101012 71 221 7.0 15.0 0.00 0.34 0.34 67 1016.0
20260831100012 71 258 9.0 19.0 0.00 0.34 0.34 69 1016.1
20260831095012 71 259 8.0 18.0 0.00 0.34 0.34 67 1016.3
20260831094012 70 221 7.0 19.0 0.00 0.34 0.34 75 1016.1
20260831093012 69 245 7.0 19.0 0.00 0.34 0.34 74 1016.1
20260831092012 68 263 6.0 17.0 0.00 0.34 0.34 73 1016.2
20260831091012 67 279 9.0 17.0 0.00 0.34 0.34 73 1016.1
20260831090012 68 274 7.0 16.0 0.00 0.34 0.34 76 1016.1
20260831085012 66 248 7.0 19.0 0.00 0.34 0.34 77 1016.1
20260831084012 66 250 9.0 19.0 0.00 0.34 0.34 76 1016.0
20260831083012 67 263 9.0 17.0 0.00 0.34 0.34 76 1015.9
20260831082012 67 188 7.0 18.0 0.00 0.34 0.34 81 1015.8
20260831081012 67 280 5.0 12.0 0.00 0.34 0.34 81 1015.8
20260831080012 66 228 6.0 13.0 0.00 0.34 0.34 84 1015.7
20260831075012 66 225 6.0 16.0 0.00 0.34 0.34 85 1015.7
20260831074012 65 250 6.0 16.0 0.00 0.34 0.34 86 1015.7
20260831073013 65 296 4.0 12.0 0.00 0.34 0.34 89 1015.7
20260831072011 64 301 6.0 13.0 0.00 0.34 0.34 88 1015.6
20260831071012 64 225 4.0 13.0 0.00 0.34 0.34 89 1015.5
20260831070012 63 256 7.0 15.0 0.00 0.34 0.34 90 1015.4
20260831065012 63 238 4.0 12.0 0.00 0.34 0.34 91 1015.3
20260831064011 62 223 3.0 12.0 0.00 0.34 0.34 92 1015.3
20260831063012 62 254 4.0 12.0 0.00 0.34 0.34 92 1015.4
20260831062012 62 217 3.0 8.0 0.00 0.34 0.34 91 1015.2
20260831061011 62 194 3.0 8.0 0.00 0.34 0.34 92 1014.9
20260831060012 62 196 4.0 12.0 0.00 0.34 0.34 92 1014.7
20260831055011 62 275 4.0 12.0 0.00 0.34 0.34 92 1014.6
20260831054011 62 278 4.0 10.0 0.00 0.34 0.34 92 1014.6
20260831053011 62 267 5.0 19.0 0.00 0.34 0.34 92 1014.5
20260831052011 62 232 3.0 12.0 0.00 0.34 0.34 92 1014.2
20260831051011 62 257 3.0 7.0 0.00 0.34 0.34 92 1014.3
20260831050011 62 219 2.0 4.0 0.00 0.34 0.34 92 1014.0
20260831045011 61 190 0.0 2.0 0.00 0.34 0.34 91 1014.0
20260831044011 61 190 0.0 2.0 0.00 0.34 0.34 91 1013.8
20260831043011 61 190 1.0 3.0 0.00 0.34 0.34 91 1013.6
20260831042011 61 190 1.0 5.0 0.01 0.34 0.34 91 1013.4
20260831041011 61 186 2.0 5.0 0.01 0.34 0.34 91 1013.4
20260831040011 61 180 1.0 4.0 0.01 0.34 0.34 91 1013.6
20260831035011 61 192 1.0 6.0 0.02 0.34 0.34 90 1013.6
20260831034010 61 191 1.0 4.0 0.04 0.34 0.34 90 1013.3
20260831033011 61 191 1.0 5.0 0.19 0.34 0.34 89 1013.3
20260831032011 61 192 2.0 5.0 0.33 0.33 0.33 88 1013.4
20260831031010 61 194 1.0 4.0 0.33 0.33 0.33 87 1013.5
20260831030010 61 194 3.0 7.0 0.33 0.33 0.33 86 1013.4
20260831025019 61 180 3.0 10.0 0.32 0.32 0.32 85 1013.6
20260831024010 62 240 3.0 9.0 0.30 0.30 0.30 83 1013.5
20260831023011 62 190 5.0 13.0 0.15 0.15 0.15 81 1014.0
20260831022010 61 144 1.0 3.0 0.00 0.00 0.00 79 1013.0
20260831021010 61 124 1.0 3.0 0.00 0.00 0.00 78 1012.0
20260831020010 61 124 1.0 3.0 0.00 0.00 0.00 79 1012.3
20260831015010 61 124 1.0 2.0 0.00 0.00 0.00 79 1012.5
20260831014010 61 124 0.0 2.0 0.00 0.00 0.00 79 1012.6
20260831013010 61 124 0.0 2.0 0.00 0.00 0.00 79 1012.6
20260831012011 61 124 1.0 4.0 0.00 0.00 0.00 81 1012.7
20260831011009 60 124 2.0 4.0 0.00 0.00 0.00 85 1012.7
20260831010010 60 124 2.0 4.0 0.00 0.00 0.00 86 1013.0
20260831005010 59 135 2.0 3.0 0.00 0.00 0.00 86 1013.2
20260831004010 59 135 2.0 3.0 0.00 0.00 0.00 86 1013.1
20260831003010 59 135 2.0 4.0 0.00 0.00 0.00 86 1013.1
20260831002010 59 136 1.0 3.0 0.00 0.00 0.00 86 1013.5
20260831001010 59 136 1.0 2.0 0.00 0.00 0.00 86 1013.6
20260831000010 59 136 1.0 3.0 0.00 0.00 0.00 85 1013.7
20260830235010 59 136 1.0 2.0 0.00 0.00 0.00 85 1013.7
20260830234009 60 136 2.0 3.0 0.00 0.00 0.00 85 1013.8
20260830233010 60 136 2.0 3.0 0.00 0.00 0.00 85 1014.0
20260830232011 60 136 1.0 4.0 0.00 0.00 0.00 85 1014.0
20260830231009 59 212 0.0 0.0 0.00 0.00 0.00 81 1014.1
20260830230010 59 212 0.0 0.0 0.00 0.00 0.00 81 1014.1
20260830225010 59 212 0.0 0.0 0.00 0.00 0.00 80 1014.1
20260830224010 60 212 0.0 0.0 0.00 0.00 0.00 80 1014.1
20260830223010 60 212 0.0 0.0 0.00 0.00 0.00 78 1014.2
20260830222016 60 212 0.0 0.0 0.00 0.00 0.00 78 1014.2
20260830221010 60 212 0.0 0.0 0.00 0.00 0.00 77 1014.3
20260830220009 60 212 0.0 0.0 0.00 0.00 0.00 76 1014.4
20260830215008 60 212 0.0 0.0 0.00 0.00 0.00 74 1014.5
20260830214008 61 212 0.0 0.0 0.00 0.00 0.00 74 1014.4
20260830213009 61 212 0.0 0.0 0.00 0.00 0.00 73 1014.4
20260830212008 61 212 0.0 0.0 0.00 0.00 0.00 72 1014.3
20260830211008 62 212 0.0 0.0 0.00 0.00 0.00 72 1014.4
20260830210008 62 212 0.0 0.0 0.00 0.00 0.00 72 1014.4
20260830205008 62 212 0.0 0.0 0.00 0.00 0.00 72 1014.5
20260830204008 63 212 0.0 0.0 0.00 0.00 0.00 71 1014.5
20260830203013 63 212 0.0 0.0 0.00 0.00 0.00 71 1014.5
20260830202014 63 212 0.0 0.0 0.00 0.00 0.00 70 1014.5
20260830201013 64 212 0.0 0.0 0.00 0.00 0.00 69 1014.4
20260830200013 64 212 0.0 0.0 0.00 0.00 0.00 69 1014.5
20260830195013 65 212 0.0 0.0 0.00 0.00 0.00 68 1014.5
20260830194013 65 212 0.0 0.0 0.00 0.00 0.00 66 1014.5
20260830193013 66 212 0.0 0.0 0.00 0.00 0.00 65 1014.4
20260830192013 67 212 0.0 0.0 0.00 0.00 0.00 64 1014.4
20260830191013 67 212 0.0 0.0 0.00 0.00 0.00 62 1014.4
20260830190013 68 212 0.0 0.0 0.00 0.00 0.00 60 1014.4
20260830185013 68 212 0.0 0.0 0.00 0.00 0.00 59 1014.4
20260830184013 69 212 0.0 2.0 0.00 0.00 0.00 58 1014.3
20260830183013 70 212 1.0 3.0 0.00 0.00 0.00 57 1014.2
20260830182013 70 212 2.0 3.0 0.00 0.00 0.00 56 1014.2